Dewpoint
31 31 31 32 31 31 30 29 30 29 28 27 27 27 29 26 24 21 21 21 22 23
31 31 31 31 31 31 31 29 28 28 28 26 25 26 28 24 22 20 21 22 22 23
30 31 31 31 29 30 30 29 27 25 26 25 25 28 26 23 20 19 20 20 22 23
30 31 31 29 29 29 29 28 26 25 25 25 26 26 23 22 19 19 19 20 21 23
30 30 29 28 28 29 28 28 27 26 26 25 28 24 22 20 19 18 19 20 22 22
30 29 29 28 28 27 27 28 27 26 26 25 27 24 22 20 18 18 20 20 21 21
29 28 28 28 28 26 26 26 27 26 25 27 25 23 22 20 18 18 18 18 20 18
29 28 28 27 27 26 25 24 27 26 26 25 23 22 20 18 17 18 17 18 17 16
28 28 27 26 26 25 23 24 27 24 25 23 22 22 22 16 15 16 16 16 17 17
28 28 26 25 23 21 20 24 23 23 23 22 22 21 21 18 15 14 14 16 17 14
28 25 23 21 20 18 19 19 20 22 22 21 20 19 18 15 13 13 14 16 15 14
27 22 21 19 18 18 18 18 19 20 17 16 16 17 16 14 12 12 14 12 14 14
22 20 19 18 17 18 17 17 17 16 16 15 13 14 14 13 12 13 13 13 13 14
20 18 18 17 18 17 17 17 16 13 13 14 13 12 13 13 12 14 15 15 14 13
Wind_Speed
17 16 15 15 15 14 13 12 12 12 11 10 10 10 11 10 9 12 12 11 9 8
18 18 16 15 15 14 14 13 13 12 11 9 9 9 10 10 10 11 10 9 10 9
19 16 16 15 14 15 14 15 14 12 11 9 8 9 10 9 10 10 10 9 10 10
19 17 16 16 14 15 15 16 14 12 11 10 9 8 8 7 9 10 9 10 9 10
20 18 18 17 15 15 15 14 14 11 11 10 9 8 8 7 7 9 9 9 9 9
20 20 20 17 15 14 14 14 12 11 11 9 10 9 7 6 8 8 7 8 9 9
21 20 19 17 16 14 12 13 13 12 10 10 11 9 6 7 7 7 7 8 8 9
20 19 18 17 15 14 12 11 11 13 10 13 11 7 7 7 7 5 6 7 8 9
20 19 18 17 16 14 13 11 15 12 15 12 8 8 9 7 6 5 6 8 9 10
18 18 16 15 16 15 14 14 15 12 14 12 8 6 5 5 3 5 6 8 9 11
16 15 16 17 16 14 15 17 15 15 13 11 7 4 6 4 2 5 6 7 9 12
18 17 17 18 16 15 18 16 15 14 12 10 6 4 6 5 4 6 8 9 10 11
16 17 16 15 15 12 16 16 15 13 9 8 6 7 6 6 4 6 8 8 10 12
18 18 17 15 15 16 15 15 14 11 7 7 7 5 5 7 6 7 5 8 9 11
Wind_Direction
147 150 151 151 146 141 139 130 126 115 106 95 86 79 86 79 60 39 24 15 3 342
148 149 149 142 138 139 138 134 133 122 113 103 83 83 102 81 50 36 20 8 354 348
152 147 143 141 141 142 143 138 137 125 118 107 96 96 110 77 43 30 14 9 354 348
151 147 145 144 147 144 144 148 147 139 131 122 113 114 100 82 40 30 13 2 355 343
150 148 150 150 149 150 148 159 154 149 137 126 128 124 99 75 44 30 11 350 340 347
154 156 156 151 152 151 148 161 155 157 141 136 142 124 105 74 43 22 2 347 340 347
162 159 152 153 156 152 149 152 168 160 142 139 138 130 116 79 40 13 3 355 348 339
158 154 152 156 152 151 150 151 153 145 136 136 138 134 119 81 40 4 351 346 345 341
152 152 158 155 152 151 140 143 141 146 143 145 133 121 124 98 45 356 347 341 330 329
150 155 155 150 147 146 138 134 143 138 141 134 130 115 103 84 28 332 330 325 324 335
144 155 152 149 152 143 138 138 141 140 136 132 109 90 69 71 340 332 326 317 325 319
163 155 152 151 151 139 133 128 130 132 124 117 87 71 42 31 357 342 326 339 328 332
157 148 149 148 139 133 132 128 122 122 122 119 95 58 24 9 352 330 328 334 334 332
142 145 143 139 136 135 129 125 121 122 127 118 95 55 0 354 349 319 330 332 334 337